Regional Weather Roundup
Issued by NWS

Home | Current Version | Previous Version | Text Only | Print | Product List | Glossary On
Versions: 1 2 3 4 5 6 7 8 9 10 11 12 13 14 15 16 17 18 19 20 21 22 23 24 25 26 27 28 29 30 31 32 33 34 35 36 37 38 39 40 41 42 43 44 45 46 47 48 49 50
000
ASUS46 KLOX 171012
RWRCA

SOUTHERN CALIFORNIA WEATHER ROUNDUP
NATIONAL WEATHER SERVICE OXNARD CALIFORNIA
300 AM PDT THU APR 17 2014

NOTE: "FAIR" INDICATES FEW OR NO CLOUDS BELOW 12,000 FEET WITH NO
SIGNIFICANT WEATHER AND/OR OBSTRUCTIONS TO VISIBILITY.

  -  STATIONS PRECEEDED BY AN ASTERISK (*) ARE NOT NWS OR FAA
     STATIONS AND ARE NOT SUBJECT TO NWS AND FAA QUALITY CONTROL.

CAZ041-042-087-171100-
LA AND ORANGE COUNTY COASTAL AREAS


CITY           SKY/WX    TMP DP  RH WIND       PRES   REMARKS
L.A. DOWNTOWN  CLOUDY    60  53  77 CALM      29.85F
L.A. AIRPORT   MOCLDY    60  52  74 E8        29.85F
LONG BEACH     CLOUDY    60  51  72 SE6       29.85S

CITY           SKY/WX    TMP DP  RH WIND       PRES   REMARKS
AVALON           N/A     57 N/A N/A SW1         N/A
FULLERTON      CLOUDY    60  53  77 VRB3      29.84F
*GETTY CENTER    N/A     52  52 100 S2          N/A
HAWTHORNE      CLOUDY    60  51  72 SE6       29.85F
*LOS ALAMITOS  CLOUDY    59  54  82 S6        29.85F
*REDONDO BEACH   N/A     58  53  84 SE3       29.83S
SANTA ANA      CLOUDY    60  53  77 CALM      29.85F
STA MONICA APT CLOUDY    62  54  74 CALM      29.85F
*UCLA            N/A     57  52  82 N1        29.83S

$$

CAZ547-548-048-171100-
LA COUNTY VALLEYS AND INLAND EMPIRE


CITY           SKY/WX    TMP DP  RH WIND       PRES   REMARKS
BURBANK        CLOUDY    56  52  86 SE6       29.84S
VAN NUYS       CLOUDY    55  51  86 S3        29.85S FOG

CITY           SKY/WX    TMP DP  RH WIND       PRES   REMARKS
CORONA AIRPORT FAIR      49  47  93 CALM      29.85F
*CHATSWORTH      N/A     56  52  86 E1        29.83R
CHINO          FAIR      53  51  93 CALM      29.86F FOG
MARCH AFB      FAIR      50  42  72 CALM      29.85F
ONTARIO        FAIR      58  52  80 CALM      29.84F
*PASADENA        N/A     57  55  94 CALM        N/A
RIVERSIDE      FAIR      56  51  84 CALM      29.85F
SAN BERNARDINO NOT AVBL
*SAN GABRIEL     N/A     58  53  81 CALM      29.82S
*WHITEMAN AP   NOT AVBL
*WOODLAND HILL   N/A     54  50  87 S1          N/A

$$

CAZ054-055-171100-
LA AND SAN BERNARDINO COUNTY MOUNTAINS


CITY           SKY/WX    TMP DP  RH WIND       PRES   REMARKS
*ACTON           N/A     50  38  63 N6          N/A
*BIG BEAR AIRP FAIR      32  21  64 CALM      30.07F
*BIG PINES       N/A     51  28  40 CALM        N/A
*CHILAO          N/A     59  19  21 S2          N/A
MT WILSON NWS    N/A     55  19  24 SW5         N/A
SANDBERG       FAIR      58  36  43 N23       29.93F
*WARM SPRINGS    N/A     60  34  37 W7          N/A

$$

CAZ028-029-059-060-099-171100-
ANTELOPE VALLEY AND SURROUNDING AREAS


CITY           SKY/WX    TMP DP  RH WIND       PRES   REMARKS
LANCASTER      FAIR      58  34  40 CALM      29.84F
PALMDALE       FAIR      56  30  37 S6        29.85F

CITY           SKY/WX    TMP DP  RH WIND       PRES   REMARKS
29 PALMS       FAIR      68  33  27 NW8       29.89S
BARSTOW/DAGGET FAIR      63  31  30 W9        29.82S
BISHOP         FAIR      54  23  30 NW8       29.92F
CHINA LAKE       N/A     61  33  35 SW3       29.81R
EDWARDS AFB    FAIR      55  32  41 S7        29.82F
MOJAVE         FAIR      64  28  25 NW10      29.84F
NEEDLES        FAIR      76  21  12 NE5       29.76R
VICTORVILLE    FAIR      57  37  47 SE6       29.87F

$$

CAZ039-040-171100-
VENTURA AND SANTA BARBARA COUNTY COAST


CITY           SKY/WX    TMP DP  RH WIND       PRES   REMARKS
CAMARILLO      MOCLDY    54  50  86 N3        29.84S
NWS OXNARD       N/A     55  52  89 CALM      29.84S
OXNARD AIRPORT CLOUDY    58  54  86 SE5       29.84S FOG
*POINT MUGU    CLOUDY    60  55  83 SE9       29.83F
SBA APT/GOLETA CLOUDY    56  51  84 NE5       29.85S
*SANTA BARBARA   N/A     58  53  83 CALM      29.93S
*VENTURA         N/A     56  52  89 CALM      29.90S

$$

CAZ044-045-171100-
VENTURA COUNTY VALLEYS


CITY           SKY/WX    TMP DP  RH WIND       PRES   REMARKS
*SIMI VALLEY     N/A     56  51  85 E3        29.80R
*OJAI            N/A     47  44  91 CALM      29.80R
*FILLMORE        N/A     51  47  88 CALM      29.75R

$$

CAZ053-171100-
VENTURA COUNTY MOUNTAINS


CITY           SKY/WX    TMP DP  RH WIND       PRES   REMARKS
*LOCKWOOD VLY    N/A     37  27  65 MISG        N/A
*ROSE VALLEY     N/A     41  37  87 MISG        N/A

$$

CAZ034-035-036-171100-
CENTRAL COAST AND SANTA YNEZ VALLEY


CITY           SKY/WX    TMP DP  RH WIND       PRES   REMARKS
SAN LUIS OBISP FAIR      52  48  86 SE8       29.83R
SANTA MARIA    FAIR      52  48  86 S6        29.84R FOG

CITY           SKY/WX    TMP DP  RH WIND       PRES   REMARKS
*CAL POLY SLO    N/A     48  48 100 CALM        N/A
*CAMBRIA         N/A     48  46  95 S1        29.72S
*LOMPOC        FAIR      52  46  82 W3        29.86R
*PISMO BEACH     N/A     51  48  90 CALM      29.85R
*SANTA YNEZ    FOG       50  50 100 CALM      29.84S VSB 3/4

$$

CAZ037-038-051-171100-
SAN LUIS OBISPO COUNTY INTERIOR AND CUYAMA VALLEY


CITY           SKY/WX    TMP DP  RH WIND       PRES   REMARKS
*CUYAMA          N/A     57  35  43 CALM      29.68F
PASO ROBLES    FAIR      52  41  66 CALM      29.83S

$$

CAZ032-033-061-171100-
SOUTHERN DESERTS


CITY           SKY/WX    TMP DP  RH WIND       PRES   REMARKS
BLYTHE         FAIR      71  19  14 SW7       29.76R
IMPERIAL       FAIR      65  52  62 SE9       29.73F
PALM SPRINGS   FAIR      69  44  40 SE3       29.78S
THERMAL        FAIR      71  41  33 SE5       29.75R

$$

ELSEWHERE ACROSS THE WESTERN UNITED STATES AND MEXICO


CITY           SKY/WX    TMP DP  RH WIND       PRES   REMARKS
DENVER, CO     PTCLDY    31  27  85 S15       30.06F WCI  20
GRAND CANYON,  FAIR      27  14  58 CALM      30.07S
HONOLULU, HI   PTCLDY    73  64  73 NE10G17   30.13S
KAHULUI, MAUI  CLEAR     72  66  83 NE10      30.13S
LAKE TAHOE, CA FAIR      37  31  78 CALM      30.03F
LAS VEGAS, NV  FAIR      69  24  18 CALM      29.79R
MAMMOTH LAKES, FAIR      39  25  56 CALM      30.07F
MEXICO CITY, M CLEAR     57  46  67 S3        30.20F
PHOENIX, AZ    FAIR      69  30  23 E8        29.81R
PORTLAND, OR   LGT RAIN  51  50  96 E7        29.96F
RENO, NV       FAIR      51  32  48 CALM      29.98F
SALT LAKE CITY FAIR      40  20  44 SE6       30.02S
SAN DIEGO, CA  CLOUDY    61  52  72 S8        29.87F
SAN FRANCISCO, FAIR      54  49  83 W8        29.82F
SAN JOSE, CA   FAIR      56  50  80 CALM      29.81F
SEATTLE, WA    CLOUDY    50  48  93 S13       29.90F
TIJUANA, MEX   PTCLDY    55  48  76 CALM      29.88F

$$

STATION/POSITION TIME  TEMP    WIND        PRES    VSBY  WAVE
                       AIR SEA DIR/SP/G                  HT/PER
                 (UTC) (F)     (DEG/KT/KT) (MB)    (MI)  (FT/S)
POINT ARGUELLO B NOT AVBL
WEST SANTA BARBA 1000   54 54  340/  8/ 10 1010.2F         7/11
POINT CONCEPTION NOT AVBL
EAST SANTA BARBA NOT AVBL
SANTA MONICA BAY 1000   59 60  130/ 10/ 12 1010.3S         3/11



USA.gov is the U.S. government's official web portal to all federal, state and local government web resources and services.